Time,TemperatureF,DewpointF,PressureIn,WindDirection,WindDirectionDegrees,WindSpeedMPH,WindSpeedGustMPH,Humidity,HourlyPrecipIn,Conditions,Clouds,dailyrainin,SoftwareType,DateUTC
2013-03-05 00:03:00,51.4,45.5,30.04,SE,127,3.0,9.0,80,0.00,,,0.00,meteohub,2013-03-05 06:03:00,
2013-03-05 00:08:00,51.4,45.5,30.04,SSE,151,4.0,9.0,80,0.00,,,0.00,meteohub,2013-03-05 06:08:00,
2013-03-05 00:13:00,51.4,45.5,30.04,SE,125,1.0,7.0,80,0.00,,,0.00,meteohub,2013-03-05 06:13:00,
2013-03-05 00:18:00,51.6,45.7,30.04,ESE,120,1.0,6.0,80,0.00,,,0.00,meteohub,2013-03-05 06:18:00,
2013-03-05 00:23:00,51.6,45.7,30.04,ESE,113,2.0,8.0,80,0.00,,,0.00,meteohub,2013-03-05 06:23:00,
2013-03-05 00:29:00,51.6,45.7,30.04,SE,128,2.0,8.0,80,0.00,,,0.00,meteohub,2013-03-05 06:29:00,
2013-03-05 00:34:00,51.6,45.7,30.05,SE,129,2.0,7.0,80,0.00,,,0.00,meteohub,2013-03-05 06:34:00,
2013-03-05 00:39:00,51.6,45.7,30.04,ESE,121,2.0,6.0,80,0.00,,,0.00,meteohub,2013-03-05 06:39:00,
2013-03-05 00:44:00,51.6,45.7,30.05,SE,131,2.0,5.0,80,0.00,,,0.00,meteohub,2013-03-05 06:44:00,
2013-03-05 00:49:00,51.6,45.7,30.04,East,93,3.0,5.0,80,0.00,,,0.00,meteohub,2013-03-05 06:49:00,
2013-03-05 00:54:00,51.8,45.9,30.05,SE,137,1.0,5.0,80,0.00,,,0.00,meteohub,2013-03-05 06:54:00,
2013-03-05 00:59:00,51.6,45.7,30.05,SE,124,0.0,5.0,80,0.00,,,0.00,meteohub,2013-03-05 06:59:00,
2013-03-05 01:04:00,51.6,45.7,30.05,SE,124,0.0,5.0,80,0.00,,,0.00,meteohub,2013-03-05 07:04:00,
2013-03-05 01:09:00,51.6,46.0,30.05,East,95,2.0,5.0,81,0.00,,,0.00,meteohub,2013-03-05 07:09:00,
2013-03-05 01:14:00,51.6,46.0,30.05,ESE,117,1.0,5.0,81,0.00,,,0.00,meteohub,2013-03-05 07:14:00,
2013-03-05 01:20:00,51.6,46.0,30.05,ESE,117,0.0,5.0,81,0.00,,,0.00,meteohub,2013-03-05 07:20:00,
2013-03-05 01:25:00,51.6,46.0,30.06,West,280,0.0,3.0,81,0.00,,,0.00,meteohub,2013-03-05 07:25:00,
2013-03-05 01:30:00,51.6,46.0,30.06,ENE,65,0.0,3.0,81,0.00,,,0.00,meteohub,2013-03-05 07:30:00,
2013-03-05 01:35:00,51.6,46.0,30.05,ENE,76,1.0,3.0,81,0.00,,,0.00,meteohub,2013-03-05 07:35:00,
2013-03-05 01:40:00,51.6,46.0,30.06,ENE,76,0.0,3.0,81,0.00,,,0.00,meteohub,2013-03-05 07:40:00,
2013-03-05 01:45:00,51.6,46.0,30.06,East,86,1.0,3.0,81,0.00,,,0.00,meteohub,2013-03-05 07:45:00,
2013-03-05 01:50:00,51.6,46.0,30.06,East,87,1.0,3.0,81,0.00,,,0.00,meteohub,2013-03-05 07:50:00,
2013-03-05 01:55:00,51.6,46.0,30.06,East,98,2.0,3.0,81,0.00,,,0.00,meteohub,2013-03-05 07:55:00,
2013-03-05 02:00:00,51.6,46.2,30.06,East,87,5.0,6.0,82,0.00,,,0.00,meteohub,2013-03-05 08:00:00,
2013-03-05 02:06:00,51.6,46.2,30.05,East,99,5.0,7.0,82,0.00,,,0.00,meteohub,2013-03-05 08:06:00,
2013-03-05 02:11:00,51.6,46.2,30.05,ESE,102,3.0,7.0,82,0.00,,,0.00,meteohub,2013-03-05 08:11:00,
2013-03-05 02:16:00,51.6,46.2,30.05,ESE,109,2.0,7.0,82,0.00,,,0.00,meteohub,2013-03-05 08:16:00,
2013-03-05 02:21:00,51.8,46.4,30.05,East,94,5.0,7.0,82,0.00,,,0.00,meteohub,2013-03-05 08:21:00,
2013-03-05 02:26:00,52.0,46.6,30.05,East,97,3.0,8.0,82,0.00,,,0.00,meteohub,2013-03-05 08:26:00,
2013-03-05 02:31:00,52.0,46.9,30.05,ESE,115,2.0,8.0,83,0.00,,,0.00,meteohub,2013-03-05 08:31:00,
2013-03-05 02:36:00,52.2,47.1,30.05,SE,129,3.0,8.0,83,0.00,,,0.00,meteohub,2013-03-05 08:36:00,
2013-03-05 02:41:00,52.2,47.1,30.05,East,100,2.0,7.0,83,0.00,,,0.00,meteohub,2013-03-05 08:41:00,
2013-03-05 02:47:00,52.2,47.1,30.04,East,89,5.0,5.0,83,0.00,,,0.00,meteohub,2013-03-05 08:47:00,
2013-03-05 02:52:00,52.0,46.9,30.04,ESE,108,3.0,6.0,83,0.00,,,0.00,meteohub,2013-03-05 08:52:00,
2013-03-05 02:57:00,52.0,46.9,30.04,East,87,6.0,7.0,83,0.00,,,0.00,meteohub,2013-03-05 08:57:00,
2013-03-05 03:02:00,52.0,46.9,30.04,East,85,6.0,7.0,83,0.00,,,0.00,meteohub,2013-03-05 09:02:00,
2013-03-05 03:07:00,52.2,47.5,30.04,East,94,2.0,7.0,84,0.00,,,0.00,meteohub,2013-03-05 09:07:00,
2013-03-05 03:12:00,52.2,47.5,30.04,ESE,104,2.0,7.0,84,0.00,,,0.00,meteohub,2013-03-05 09:12:00,
2013-03-05 03:17:00,52.2,47.5,30.04,East,92,3.0,7.0,84,0.00,,,0.00,meteohub,2013-03-05 09:17:00,
2013-03-05 03:22:00,52.2,47.5,30.04,ESE,108,2.0,7.0,84,0.00,,,0.00,meteohub,2013-03-05 09:22:00,
2013-03-05 03:27:00,52.2,47.5,30.04,East,100,3.0,7.0,84,0.00,,,0.00,meteohub,2013-03-05 09:27:00,
2013-03-05 03:32:00,52.0,47.3,30.04,ESE,104,2.0,7.0,84,0.00,,,0.00,meteohub,2013-03-05 09:32:00,
2013-03-05 03:37:00,52.0,47.3,30.04,East,91,2.0,7.0,84,0.00,,,0.00,meteohub,2013-03-05 09:37:00,
2013-03-05 03:42:00,52.0,47.3,30.04,East,89,5.0,7.0,84,0.00,,,0.00,meteohub,2013-03-05 09:42:00,
2013-03-05 03:47:00,51.8,47.5,30.04,East,87,3.0,7.0,85,0.00,,,0.00,meteohub,2013-03-05 09:47:00,
2013-03-05 03:52:00,51.6,47.3,30.04,East,90,3.0,7.0,85,0.00,,,0.00,meteohub,2013-03-05 09:52:00,
2013-03-05 03:57:00,51.4,47.1,30.04,East,101,2.0,7.0,85,0.00,,,0.00,meteohub,2013-03-05 09:57:00,
2013-03-05 04:02:00,51.4,47.5,30.04,SE,126,2.0,7.0,86,0.00,,,0.00,meteohub,2013-03-05 10:02:00,
2013-03-05 04:07:00,51.4,47.5,30.04,East,95,2.0,7.0,86,0.00,,,0.00,meteohub,2013-03-05 10:07:00,
2013-03-05 04:12:00,51.6,47.5,30.04,ENE,77,4.0,7.0,86,0.00,,,0.00,meteohub,2013-03-05 10:12:00,
2013-03-05 04:17:00,51.6,47.5,30.04,ESE,108,1.0,6.0,86,0.00,,,0.00,meteohub,2013-03-05 10:17:00,
2013-03-05 04:22:00,51.6,47.5,30.05,ESE,114,1.0,6.0,86,0.00,,,0.00,meteohub,2013-03-05 10:22:00,
2013-03-05 04:27:00,51.4,47.5,30.04,ESE,118,3.0,5.0,86,0.00,,,0.00,meteohub,2013-03-05 10:27:00,
2013-03-05 04:32:00,51.4,47.5,30.05,SE,125,3.0,5.0,86,0.00,,,0.00,meteohub,2013-03-05 10:32:00,
2013-03-05 04:37:00,51.4,47.7,30.05,ESE,102,3.0,6.0,87,0.00,,,0.00,meteohub,2013-03-05 10:37:00,
2013-03-05 04:42:00,51.4,47.7,30.04,ESE,106,3.0,6.0,87,0.00,,,0.00,meteohub,2013-03-05 10:42:00,
2013-03-05 04:47:00,51.3,47.5,30.04,East,95,3.0,6.0,87,0.00,,,0.00,meteohub,2013-03-05 10:47:00,
2013-03-05 04:52:00,51.4,47.7,30.04,SE,129,1.0,7.0,87,0.00,,,0.00,meteohub,2013-03-05 10:52:00,
2013-03-05 04:57:00,51.4,47.7,30.04,East,99,3.0,7.0,87,0.00,,,0.00,meteohub,2013-03-05 10:57:00,
2013-03-05 05:02:00,51.4,48.0,30.04,ESE,117,1.0,7.0,88,0.00,,,0.00,meteohub,2013-03-05 11:02:00,
2013-03-05 05:07:00,51.4,48.0,30.04,ESE,108,2.0,9.0,88,0.00,,,0.00,meteohub,2013-03-05 11:07:00,
2013-03-05 05:12:00,51.4,48.0,30.04,SE,146,2.0,9.0,88,0.00,,,0.00,meteohub,2013-03-05 11:12:00,
2013-03-05 05:17:00,51.6,48.2,30.04,ESE,109,2.0,6.0,88,0.00,,,0.00,meteohub,2013-03-05 11:17:00,
2013-03-05 05:22:00,51.8,48.4,30.05,SE,146,2.0,6.0,88,0.00,,,0.00,meteohub,2013-03-05 11:22:00,
2013-03-05 05:27:00,52.0,48.6,30.05,SE,132,1.0,6.0,88,0.00,,,0.00,meteohub,2013-03-05 11:27:00,
2013-03-05 05:32:00,52.0,48.6,30.04,ESE,108,2.0,6.0,88,0.00,,,0.00,meteohub,2013-03-05 11:32:00,
2013-03-05 05:37:00,52.0,48.9,30.05,East,100,1.0,5.0,89,0.00,,,0.00,meteohub,2013-03-05 11:37:00,
2013-03-05 05:42:00,52.0,48.9,30.05,ESE,115,3.0,5.0,89,0.00,,,0.00,meteohub,2013-03-05 11:42:00,
2013-03-05 05:47:00,52.2,49.1,30.05,ESE,102,4.0,5.0,89,0.00,,,0.00,meteohub,2013-03-05 11:47:00,
2013-03-05 05:52:00,52.2,49.1,30.04,East,95,2.0,5.0,89,0.00,,,0.00,meteohub,2013-03-05 11:52:00,
2013-03-05 05:57:00,52.0,48.9,30.05,SE,128,1.0,6.0,89,0.00,,,0.00,meteohub,2013-03-05 11:57:00,
2013-03-05 06:02:00,52.2,49.1,30.05,East,97,2.0,6.0,89,0.00,,,0.00,meteohub,2013-03-05 12:02:00,
2013-03-05 06:07:00,52.0,48.9,30.05,ESE,104,0.0,7.0,89,0.00,,,0.00,meteohub,2013-03-05 12:07:00,
2013-03-05 06:12:00,52.0,49.1,30.05,SE,131,1.0,7.0,90,0.00,,,0.00,meteohub,2013-03-05 12:12:00,
2013-03-05 06:17:00,52.0,49.1,30.05,ESE,113,2.0,7.0,90,0.00,,,0.00,meteohub,2013-03-05 12:17:00,
2013-03-05 06:22:00,52.2,49.3,30.06,East,90,6.0,6.0,90,0.00,,,0.00,meteohub,2013-03-05 12:22:00,
2013-03-05 06:27:00,52.2,49.3,30.05,SSW,211,1.0,7.0,90,0.00,,,0.00,meteohub,2013-03-05 12:27:00,
2013-03-05 06:32:00,52.2,49.3,30.05,East,91,1.0,8.0,90,0.00,,,0.00,meteohub,2013-03-05 12:32:00,
2013-03-05 06:37:00,52.3,49.5,30.05,SE,135,0.0,8.0,90,0.00,,,0.00,meteohub,2013-03-05 12:37:00,
2013-03-05 06:42:00,52.7,49.8,30.06,SE,133,3.0,8.0,90,0.00,,,0.00,meteohub,2013-03-05 12:42:00,
2013-03-05 06:47:00,52.9,50.0,30.06,East,99,0.0,6.0,90,0.00,,,0.00,meteohub,2013-03-05 12:47:00,
2013-03-05 06:52:00,52.9,50.0,30.06,ENE,73,3.0,6.0,90,0.00,,,0.00,meteohub,2013-03-05 12:52:00,
2013-03-05 06:57:00,53.1,50.2,30.06,East,95,1.0,6.0,90,0.00,,,0.00,meteohub,2013-03-05 12:57:00,
2013-03-05 07:02:00,53.1,50.2,30.06,East,95,2.0,5.0,90,0.00,,,0.00,meteohub,2013-03-05 13:02:00,
2013-03-05 07:07:00,53.2,50.4,30.06,ESE,104,2.0,5.0,90,0.00,,,0.00,meteohub,2013-03-05 13:07:00,
2013-03-05 07:12:00,53.2,50.4,30.06,East,86,5.0,7.0,90,0.00,,,0.00,meteohub,2013-03-05 13:12:00,
2013-03-05 07:17:00,53.2,50.4,30.06,ENE,77,4.0,7.0,90,0.00,,,0.00,meteohub,2013-03-05 13:17:00,
2013-03-05 07:22:00,53.4,50.5,30.06,SE,133,3.0,7.0,90,0.00,,,0.00,meteohub,2013-03-05 13:22:00,
2013-03-05 07:27:00,53.4,50.5,30.06,East,95,5.0,6.0,90,0.00,,,0.00,meteohub,2013-03-05 13:27:00,
2013-03-05 07:32:00,53.6,50.7,30.05,East,97,3.0,6.0,90,0.00,,,0.00,meteohub,2013-03-05 13:32:00,
2013-03-05 07:37:00,53.8,50.9,30.04,ESE,110,1.0,7.0,90,0.00,,,0.00,meteohub,2013-03-05 13:37:00,
2013-03-05 07:42:00,53.8,50.9,30.03,SE,141,4.0,7.0,90,0.00,,,0.00,meteohub,2013-03-05 13:42:00,
2013-03-05 07:47:00,54.0,51.1,30.04,SE,127,2.0,7.0,90,0.00,,,0.00,meteohub,2013-03-05 13:47:00,
2013-03-05 07:52:00,54.0,51.1,30.06,ESE,120,2.0,9.0,90,0.00,,,0.00,meteohub,2013-03-05 13:52:00,
2013-03-05 07:57:00,54.1,51.3,30.04,ESE,114,7.0,9.0,90,0.00,,,0.00,meteohub,2013-03-05 13:57:00,
2013-03-05 08:02:00,54.5,51.6,30.03,ESE,112,4.0,8.0,90,0.00,,,0.00,meteohub,2013-03-05 14:02:00,
2013-03-05 08:07:00,54.9,52.0,30.04,East,100,3.0,8.0,90,0.00,,,0.00,meteohub,2013-03-05 14:07:00,
2013-03-05 08:12:00,55.4,52.2,30.06,WNW,284,1.0,8.0,89,0.00,,,0.00,meteohub,2013-03-05 14:12:00,
2013-03-05 08:17:00,55.8,52.5,30.06,WNW,283,0.0,8.0,89,0.00,,,0.00,meteohub,2013-03-05 14:17:00,
2013-03-05 08:22:00,56.1,52.9,30.06,WNW,283,1.0,4.0,89,0.00,,,0.00,meteohub,2013-03-05 14:22:00,
2013-03-05 08:27:00,56.5,53.2,30.06,ESE,115,2.0,3.0,89,0.00,,,0.00,meteohub,2013-03-05 14:27:00,
2013-03-05 08:32:00,56.8,53.6,30.06,South,170,0.0,5.0,89,0.00,,,0.00,meteohub,2013-03-05 14:32:00,
2013-03-05 08:37:00,57.0,53.4,30.05,SSE,162,2.0,6.0,88,0.00,,,0.00,meteohub,2013-03-05 14:37:00,
2013-03-05 08:42:00,57.6,54.0,30.06,South,178,1.0,6.0,88,0.00,,,0.00,meteohub,2013-03-05 14:42:00,
2013-03-05 08:47:00,57.7,54.1,30.06,South,189,0.0,5.0,88,0.00,,,0.00,meteohub,2013-03-05 14:47:00,
2013-03-05 08:52:00,58.1,54.3,30.06,South,169,0.0,4.0,87,0.00,,,0.00,meteohub,2013-03-05 14:52:00,
2013-03-05 08:57:00,58.6,54.9,30.06,South,169,0.0,4.0,87,0.00,,,0.00,meteohub,2013-03-05 14:57:00,
2013-03-05 09:02:00,59.2,55.4,30.06,NE,50,2.0,3.0,87,0.00,,,0.00,meteohub,2013-03-05 15:02:00,
2013-03-05 09:07:00,59.7,55.6,30.07,West,264,0.0,3.0,86,0.00,,,0.00,meteohub,2013-03-05 15:07:00,
2013-03-05 09:12:00,60.4,56.3,30.07,WSW,239,2.0,4.0,86,0.00,,,0.00,meteohub,2013-03-05 15:12:00,
2013-03-05 09:18:00,61.0,56.5,30.07,WSW,242,3.0,5.0,85,0.00,,,0.00,meteohub,2013-03-05 15:18:00,
2013-03-05 09:23:00,61.2,56.7,30.08,West,267,1.0,5.0,85,0.00,,,0.00,meteohub,2013-03-05 15:23:00,
2013-03-05 09:28:00,61.2,56.3,30.08,WSW,245,1.0,5.0,84,0.00,,,0.00,meteohub,2013-03-05 15:28:00,
2013-03-05 09:33:00,61.3,56.5,30.07,SW,235,4.0,5.0,84,0.00,,,0.00,meteohub,2013-03-05 15:33:00,
2013-03-05 09:38:00,61.5,57.4,30.06,West,260,0.0,6.0,86,0.00,,,0.00,meteohub,2013-03-05 15:38:00,
2013-03-05 09:43:00,61.5,57.4,30.06,SW,233,2.0,6.0,86,0.00,,,0.00,meteohub,2013-03-05 15:43:00,
2013-03-05 09:48:00,61.9,57.6,30.06,West,262,2.0,6.0,86,0.00,,,0.00,meteohub,2013-03-05 15:48:00,
2013-03-05 09:53:00,62.8,58.5,30.06,WSW,245,3.0,7.0,86,0.00,,,0.00,meteohub,2013-03-05 15:53:00,
2013-03-05 09:58:00,63.3,58.5,30.05,SW,220,1.0,7.0,84,0.00,,,0.00,meteohub,2013-03-05 15:58:00,
2013-03-05 10:03:00,64.0,58.8,30.05,WSW,238,5.0,7.0,83,0.00,,,0.00,meteohub,2013-03-05 16:03:00,
2013-03-05 10:08:00,65.5,59.5,30.05,SW,224,4.0,13.0,81,0.00,,,0.00,meteohub,2013-03-05 16:08:00,
2013-03-05 10:14:00,66.6,59.5,30.04,West,272,4.0,13.0,78,0.00,,,0.00,meteohub,2013-03-05 16:14:00,
2013-03-05 10:19:00,67.3,59.0,30.04,WSW,244,6.0,13.0,75,0.00,,,0.00,meteohub,2013-03-05 16:19:00,
2013-03-05 10:24:00,67.6,59.4,30.04,WSW,253,12.0,25.0,75,0.00,,,0.00,meteohub,2013-03-05 16:24:00,
2013-03-05 10:29:00,67.6,58.6,30.03,WSW,243,8.0,25.0,73,0.00,,,0.00,meteohub,2013-03-05 16:29:00,
2013-03-05 10:34:00,67.6,58.6,30.04,West,262,6.0,25.0,73,0.00,,,0.00,meteohub,2013-03-05 16:34:00,
2013-03-05 10:39:00,67.6,58.6,30.04,WSW,237,12.0,16.0,73,0.00,,,0.00,meteohub,2013-03-05 16:39:00,
2013-03-05 10:44:00,67.6,58.6,30.03,WSW,258,7.0,16.0,73,0.00,,,0.00,meteohub,2013-03-05 16:44:00,
2013-03-05 10:49:00,67.8,58.5,30.03,SW,218,4.0,16.0,72,0.00,,,0.00,meteohub,2013-03-05 16:49:00,
2013-03-05 10:54:00,68.2,59.2,30.02,WNW,284,7.0,16.0,73,0.00,,,0.00,meteohub,2013-03-05 16:54:00,
2013-03-05 10:59:00,68.5,58.8,30.03,WSW,247,19.0,19.0,71,0.00,,,0.00,meteohub,2013-03-05 16:59:00,
2013-03-05 11:05:00,68.2,58.5,30.02,WSW,247,10.0,18.0,71,0.00,,,0.00,meteohub,2013-03-05 17:05:00,
2013-03-05 11:10:00,68.2,58.1,30.02,WSW,253,13.0,20.0,70,0.00,,,0.00,meteohub,2013-03-05 17:10:00,
2013-03-05 11:15:00,68.7,58.5,30.01,WSW,256,9.0,23.0,70,0.00,,,0.00,meteohub,2013-03-05 17:15:00,
2013-03-05 11:20:00,69.4,58.8,30.01,WSW,244,6.0,23.0,69,0.00,,,0.00,meteohub,2013-03-05 17:20:00,
2013-03-05 11:25:00,70.2,58.6,30.01,WSW,247,11.0,21.0,67,0.00,,,0.00,meteohub,2013-03-05 17:25:00,
2013-03-05 11:30:00,70.5,59.0,30.00,West,263,7.0,20.0,67,0.00,,,0.00,meteohub,2013-03-05 17:30:00,
2013-03-05 11:35:00,71.1,58.6,30.00,SW,230,15.0,21.0,65,0.00,,,0.00,meteohub,2013-03-05 17:35:00,
2013-03-05 11:40:00,71.4,58.1,29.99,West,272,6.0,21.0,63,0.00,,,0.00,meteohub,2013-03-05 17:40:00,
2013-03-05 11:45:00,71.2,57.0,29.99,SW,233,9.0,21.0,61,0.00,,,0.00,meteohub,2013-03-05 17:45:00,
2013-03-05 11:50:00,71.2,57.0,29.99,SSW,207,15.0,20.0,61,0.00,,,0.00,meteohub,2013-03-05 17:50:00,
2013-03-05 11:56:00,71.2,56.1,29.98,WSW,249,14.0,21.0,59,0.00,,,0.00,meteohub,2013-03-05 17:56:00,
2013-03-05 12:01:00,71.4,56.8,29.98,West,280,6.0,23.0,60,0.00,,,0.00,meteohub,2013-03-05 18:01:00,
2013-03-05 12:06:00,71.8,57.6,29.97,WSW,237,9.0,23.0,61,0.00,,,0.00,meteohub,2013-03-05 18:06:00,
2013-03-05 12:11:00,72.1,57.9,29.97,SSW,195,7.0,23.0,61,0.00,,,0.00,meteohub,2013-03-05 18:11:00,
2013-03-05 12:16:00,72.0,56.8,29.96,West,268,11.0,24.0,59,0.00,,,0.00,meteohub,2013-03-05 18:16:00,
2013-03-05 12:21:00,72.7,57.0,29.96,WSW,245,8.0,24.0,58,0.00,,,0.00,meteohub,2013-03-05 18:21:00,
2013-03-05 12:26:00,73.2,56.7,29.95,SW,231,11.0,23.0,56,0.00,,,0.00,meteohub,2013-03-05 18:26:00,
2013-03-05 12:31:00,73.4,57.2,29.95,WSW,238,11.0,20.0,57,0.00,,,0.00,meteohub,2013-03-05 18:31:00,
2013-03-05 12:36:00,72.9,56.3,29.95,WSW,241,13.0,19.0,56,0.00,,,0.00,meteohub,2013-03-05 18:36:00,
2013-03-05 12:41:00,72.1,56.1,29.95,SW,226,19.0,19.0,57,0.00,,,0.00,meteohub,2013-03-05 18:41:00,
2013-03-05 12:47:00,72.0,56.3,29.95,WSW,258,4.0,23.0,58,0.00,,,0.00,meteohub,2013-03-05 18:47:00,
2013-03-05 12:52:00,72.1,56.5,29.94,South,189,6.0,23.0,58,0.00,,,0.00,meteohub,2013-03-05 18:52:00,
2013-03-05 12:57:00,72.3,56.3,29.94,WNW,302,9.0,23.0,57,0.00,,,0.00,meteohub,2013-03-05 18:57:00,
2013-03-05 13:02:00,72.9,57.2,29.94,SW,235,17.0,19.0,58,0.00,,,0.00,meteohub,2013-03-05 19:02:00,
2013-03-05 13:07:00,72.9,56.3,29.93,WSW,237,12.0,25.0,56,0.00,,,0.00,meteohub,2013-03-05 19:07:00,
2013-03-05 13:12:00,72.1,56.1,29.93,West,262,6.0,27.0,57,0.00,,,0.00,meteohub,2013-03-05 19:12:00,
2013-03-05 13:17:00,72.0,56.3,29.93,West,259,8.0,27.0,58,0.00,,,0.00,meteohub,2013-03-05 19:17:00,
2013-03-05 13:22:00,72.0,56.8,29.93,SW,235,6.0,24.0,59,0.00,,,0.00,meteohub,2013-03-05 19:22:00,
2013-03-05 13:27:00,72.0,56.8,29.93,West,274,7.0,24.0,59,0.00,,,0.00,meteohub,2013-03-05 19:27:00,
2013-03-05 13:32:00,72.0,56.8,29.93,WSW,257,7.0,20.0,59,0.00,,,0.00,meteohub,2013-03-05 19:32:00,
2013-03-05 13:37:00,72.0,56.8,29.93,SW,219,12.0,20.0,59,0.00,,,0.00,meteohub,2013-03-05 19:37:00,
2013-03-05 13:42:00,72.0,56.8,29.93,WNW,287,6.0,20.0,59,0.00,,,0.00,meteohub,2013-03-05 19:42:00,
2013-03-05 13:47:00,72.3,57.2,29.93,WNW,285,12.0,19.0,59,0.00,,,0.00,meteohub,2013-03-05 19:47:00,
2013-03-05 13:52:00,72.3,57.2,29.92,West,265,8.0,19.0,59,0.00,,,0.00,meteohub,2013-03-05 19:52:00,
2013-03-05 13:57:00,72.3,57.2,29.93,West,260,4.0,19.0,59,0.00,,,0.00,meteohub,2013-03-05 19:57:00,
2013-03-05 14:02:00,72.1,57.0,29.92,SW,225,6.0,18.0,59,0.00,,,0.00,meteohub,2013-03-05 20:02:00,
2013-03-05 14:07:00,72.0,56.8,29.92,WSW,248,5.0,18.0,59,0.00,,,0.00,meteohub,2013-03-05 20:07:00,
2013-03-05 14:12:00,71.8,56.7,29.92,SSW,210,8.0,16.0,59,0.00,,,0.00,meteohub,2013-03-05 20:12:00,
2013-03-05 14:17:00,71.4,56.8,29.92,WSW,241,12.0,16.0,60,0.00,,,0.00,meteohub,2013-03-05 20:17:00,
2013-03-05 14:22:00,71.2,56.7,29.92,SSW,197,10.0,19.0,60,0.00,,,0.00,meteohub,2013-03-05 20:22:00,
2013-03-05 14:27:00,71.2,56.7,29.92,South,183,14.0,22.0,60,0.00,,,0.00,meteohub,2013-03-05 20:27:00,
2013-03-05 14:32:00,71.6,57.0,29.91,WSW,242,11.0,22.0,60,0.00,,,0.00,meteohub,2013-03-05 20:32:00,
2013-03-05 14:37:00,72.0,57.4,29.91,WSW,250,12.0,22.0,60,0.00,,,0.00,meteohub,2013-03-05 20:37:00,
2013-03-05 14:42:00,72.0,57.4,29.91,WSW,251,6.0,19.0,60,0.00,,,0.00,meteohub,2013-03-05 20:42:00,
2013-03-05 14:47:00,72.0,57.4,29.91,SSW,207,5.0,19.0,60,0.00,,,0.00,meteohub,2013-03-05 20:47:00,
2013-03-05 14:52:00,72.1,57.6,29.89,WSW,243,14.0,18.0,60,0.00,,,0.00,meteohub,2013-03-05 20:52:00,
2013-03-05 14:57:00,72.3,57.7,29.89,WSW,258,10.0,20.0,60,0.00,,,0.00,meteohub,2013-03-05 20:57:00,
2013-03-05 15:03:00,72.5,57.4,29.89,WSW,254,6.0,20.0,59,0.00,,,0.00,meteohub,2013-03-05 21:03:00,
2013-03-05 15:08:00,72.9,57.7,29.89,SW,218,6.0,23.0,59,0.00,,,0.00,meteohub,2013-03-05 21:08:00,
2013-03-05 15:13:00,72.7,57.9,29.89,SW,235,9.0,23.0,60,0.00,,,0.00,meteohub,2013-03-05 21:13:00,
2013-03-05 15:18:00,72.5,57.7,29.88,SW,220,3.0,23.0,60,0.00,,,0.00,meteohub,2013-03-05 21:18:00,
2013-03-05 15:23:00,72.3,57.7,29.88,SSW,208,15.0,23.0,60,0.00,,,0.00,meteohub,2013-03-05 21:23:00,
2013-03-05 15:28:00,72.3,57.7,29.88,SW,236,25.0,25.0,60,0.00,,,0.00,meteohub,2013-03-05 21:28:00,
2013-03-05 15:33:00,72.3,58.1,29.88,WSW,251,4.0,23.0,61,0.00,,,0.00,meteohub,2013-03-05 21:33:00,
2013-03-05 15:38:00,72.3,58.1,29.88,SW,233,5.0,25.0,61,0.00,,,0.00,meteohub,2013-03-05 21:38:00,
2013-03-05 15:43:00,72.0,58.3,29.88,WSW,241,7.0,25.0,62,0.00,,,0.00,meteohub,2013-03-05 21:43:00,
2013-03-05 15:49:00,72.0,58.3,29.88,West,274,7.0,21.0,62,0.00,,,0.00,meteohub,2013-03-05 21:49:00,
2013-03-05 15:54:00,72.0,58.6,29.88,WSW,252,17.0,21.0,63,0.00,,,0.00,meteohub,2013-03-05 21:54:00,
2013-03-05 15:59:00,72.1,58.8,29.88,SSW,210,6.0,21.0,63,0.00,,,0.00,meteohub,2013-03-05 21:59:00,
2013-03-05 16:04:00,72.1,58.5,29.88,SW,233,10.0,21.0,62,0.00,,,0.00,meteohub,2013-03-05 22:04:00,
2013-03-05 16:09:00,72.1,58.8,29.88,SW,222,14.0,21.0,63,0.00,,,0.00,meteohub,2013-03-05 22:09:00,
2013-03-05 16:14:00,71.8,59.0,29.89,West,271,9.0,19.0,64,0.00,,,0.00,meteohub,2013-03-05 22:14:00,
2013-03-05 16:19:00,71.2,58.5,29.89,WSW,251,8.0,19.0,64,0.00,,,0.00,meteohub,2013-03-05 22:19:00,
2013-03-05 16:24:00,71.1,58.6,29.88,WSW,253,5.0,18.0,65,0.00,,,0.00,meteohub,2013-03-05 22:24:00,
2013-03-05 16:30:00,70.7,58.8,29.88,WSW,249,11.0,18.0,66,0.00,,,0.00,meteohub,2013-03-05 22:30:00,
2013-03-05 16:35:00,70.3,58.8,29.88,WSW,241,12.0,18.0,67,0.00,,,0.00,meteohub,2013-03-05 22:35:00,
2013-03-05 16:40:00,70.2,59.2,29.89,WNW,285,5.0,18.0,68,0.00,,,0.00,meteohub,2013-03-05 22:40:00,
2013-03-05 16:45:00,69.6,59.4,29.91,West,266,7.0,18.0,70,0.00,,,0.00,meteohub,2013-03-05 22:45:00,
2013-03-05 16:50:00,67.1,60.4,29.91,North,359,15.0,22.0,79,0.01,,,0.01,meteohub,2013-03-05 22:50:00,
2013-03-05 16:55:00,65.5,59.9,29.92,North,359,12.0,22.0,82,0.01,,,0.01,meteohub,2013-03-05 22:55:00,
2013-03-05 17:00:00,64.9,59.9,29.92,WNW,297,8.0,22.0,84,0.01,,,0.01,meteohub,2013-03-05 23:00:00,
2013-03-05 17:05:00,64.8,60.1,29.93,North,359,2.0,23.0,85,0.01,,,0.01,meteohub,2013-03-05 23:05:00,
2013-03-05 17:11:00,64.4,59.5,29.94,WNW,287,5.0,23.0,84,0.01,,,0.01,meteohub,2013-03-05 23:11:00,
2013-03-05 17:16:00,64.0,59.4,29.94,NW,314,2.0,23.0,85,0.01,,,0.01,meteohub,2013-03-05 23:16:00,
2013-03-05 17:21:00,63.7,58.8,29.95,NW,305,3.0,17.0,84,0.01,,,0.01,meteohub,2013-03-05 23:21:00,
2013-03-05 17:26:00,62.8,56.5,29.95,WSW,248,8.0,14.0,80,0.01,,,0.01,meteohub,2013-03-05 23:26:00,
2013-03-05 17:31:00,62.1,55.0,29.96,North,359,10.0,15.0,78,0.01,,,0.01,meteohub,2013-03-05 23:31:00,
2013-03-05 17:36:00,61.5,54.7,29.96,North,359,4.0,15.0,78,0.01,,,0.01,meteohub,2013-03-05 23:36:00,
2013-03-05 17:41:00,61.5,54.7,29.96,North,359,3.0,18.0,78,0.01,,,0.01,meteohub,2013-03-05 23:41:00,
2013-03-05 17:46:00,61.2,54.7,29.96,WNW,302,4.0,18.0,79,0.01,,,0.01,meteohub,2013-03-05 23:46:00,
2013-03-05 17:51:00,61.0,54.7,29.96,WNW,289,8.0,18.0,80,0.00,,,0.01,meteohub,2013-03-05 23:51:00,
2013-03-05 17:56:00,60.6,54.7,29.96,NW,308,3.0,14.0,81,0.00,,,0.01,meteohub,2013-03-05 23:56:00,
2013-03-05 18:02:00,60.4,54.5,29.97,WNW,303,8.0,14.0,81,0.00,,,0.01,meteohub,2013-03-06 00:02:00,
2013-03-05 18:07:00,60.3,54.7,29.97,West,278,9.0,19.0,82,0.00,,,0.00,meteohub,2013-03-06 00:07:00,
2013-03-05 18:12:00,60.3,54.7,29.97,North,359,4.0,19.0,82,0.00,,,0.00,meteohub,2013-03-06 00:12:00,
2013-03-05 18:17:00,60.1,54.9,29.97,West,259,8.0,19.0,83,0.00,,,0.00,meteohub,2013-03-06 00:17:00,
2013-03-05 18:22:00,59.7,54.5,29.98,WNW,287,4.0,12.0,83,0.00,,,0.00,meteohub,2013-03-06 00:22:00,
2013-03-05 18:27:00,59.7,54.9,29.98,West,264,7.0,11.0,84,0.00,,,0.00,meteohub,2013-03-06 00:27:00,
2013-03-05 18:32:00,59.5,54.7,29.98,North,359,4.0,11.0,84,0.00,,,0.00,meteohub,2013-03-06 00:32:00,
2013-03-05 18:37:00,59.4,54.5,29.99,NNE,18,3.0,11.0,84,0.00,,,0.00,meteohub,2013-03-06 00:37:00,
2013-03-05 18:42:00,59.2,54.3,29.99,North,359,6.0,11.0,84,0.00,,,0.00,meteohub,2013-03-06 00:42:00,
2013-03-05 18:47:00,58.8,53.4,29.99,North,359,3.0,11.0,82,0.00,,,0.00,meteohub,2013-03-06 00:47:00,
2013-03-05 18:52:00,58.6,51.4,29.99,WNW,293,8.0,12.0,77,0.00,,,0.00,meteohub,2013-03-06 00:52:00,
2013-03-05 18:57:00,58.3,49.3,30.00,WNW,290,5.0,14.0,72,0.00,,,0.00,meteohub,2013-03-06 00:57:00,
2013-03-05 19:02:00,57.9,48.9,30.00,WNW,286,4.0,14.0,72,0.00,,,0.00,meteohub,2013-03-06 01:02:00,
2013-03-05 19:07:00,57.6,48.6,30.00,North,359,2.0,14.0,72,0.00,,,0.00,meteohub,2013-03-06 01:07:00,
2013-03-05 19:12:00,57.4,48.0,30.01,WNW,291,11.0,13.0,71,0.00,,,0.00,meteohub,2013-03-06 01:12:00,
2013-03-05 19:17:00,56.8,47.8,30.01,NE,34,2.0,12.0,72,0.00,,,0.00,meteohub,2013-03-06 01:17:00,
2013-03-05 19:22:00,56.5,48.0,30.01,North,4,2.0,13.0,73,0.00,,,0.00,meteohub,2013-03-06 01:22:00,
2013-03-05 19:27:00,56.1,48.4,30.01,North,359,0.0,13.0,75,0.00,,,0.00,meteohub,2013-03-06 01:27:00,
2013-03-05 19:32:00,55.8,48.7,30.02,WNW,297,3.0,13.0,77,0.00,,,0.00,meteohub,2013-03-06 01:32:00,
2013-03-05 19:37:00,55.0,48.0,30.03,NW,320,1.0,12.0,77,0.00,,,0.00,meteohub,2013-03-06 01:37:00,
2013-03-05 19:42:00,54.7,47.7,30.03,NW,314,3.0,8.0,77,0.00,,,0.00,meteohub,2013-03-06 01:42:00,
2013-03-05 19:47:00,54.0,46.9,30.04,NW,304,3.0,9.0,77,0.00,,,0.00,meteohub,2013-03-06 01:47:00,
2013-03-05 19:52:00,53.6,46.6,30.04,ENE,60,1.0,11.0,77,0.00,,,0.00,meteohub,2013-03-06 01:52:00,
2013-03-05 19:57:00,53.1,45.7,30.05,NW,319,2.0,12.0,76,0.00,,,0.00,meteohub,2013-03-06 01:57:00,
2013-03-05 20:02:00,52.2,45.1,30.06,NW,321,0.0,12.0,77,0.00,,,0.00,meteohub,2013-03-06 02:02:00,
2013-03-05 20:07:00,51.4,44.1,30.06,NNW,330,9.0,16.0,76,0.00,,,0.00,meteohub,2013-03-06 02:07:00,
2013-03-05 20:12:00,50.7,43.2,30.06,WNW,285,4.0,16.0,75,0.00,,,0.00,meteohub,2013-03-06 02:12:00,
2013-03-05 20:17:00,50.2,42.6,30.07,West,279,10.0,16.0,75,0.00,,,0.00,meteohub,2013-03-06 02:17:00,
2013-03-05 20:22:00,49.6,41.7,30.07,NW,304,3.0,13.0,74,0.00,,,0.00,meteohub,2013-03-06 02:22:00,
2013-03-05 20:27:00,49.3,41.4,30.08,NNW,347,2.0,17.0,74,0.00,,,0.00,meteohub,2013-03-06 02:27:00,
2013-03-05 20:32:00,48.9,41.4,30.08,NW,320,2.0,17.0,75,0.00,,,0.00,meteohub,2013-03-06 02:32:00,
2013-03-05 20:37:00,48.6,39.9,30.08,NW,304,3.0,17.0,72,0.00,,,0.00,meteohub,2013-03-06 02:37:00,
2013-03-05 20:42:00,48.4,39.7,30.09,West,261,7.0,14.0,72,0.00,,,0.00,meteohub,2013-03-06 02:42:00,
2013-03-05 20:47:00,48.2,39.9,30.09,NW,309,3.0,14.0,73,0.00,,,0.00,meteohub,2013-03-06 02:47:00,
2013-03-05 20:52:00,47.8,39.6,30.09,East,84,3.0,13.0,73,0.00,,,0.00,meteohub,2013-03-06 02:52:00,
2013-03-05 20:57:00,47.7,39.7,30.10,NE,41,2.0,13.0,74,0.00,,,0.00,meteohub,2013-03-06 02:57:00,
2013-03-05 21:02:00,47.5,39.6,30.10,NW,313,1.0,10.0,74,0.00,,,0.00,meteohub,2013-03-06 03:02:00,
2013-03-05 21:07:00,47.1,39.2,30.10,SSE,154,1.0,10.0,74,0.00,,,0.00,meteohub,2013-03-06 03:07:00,
2013-03-05 21:12:00,46.9,39.4,30.10,West,280,4.0,7.0,75,0.00,,,0.00,meteohub,2013-03-06 03:12:00,
2013-03-05 21:17:00,46.9,39.4,30.11,WNW,291,0.0,9.0,75,0.00,,,0.00,meteohub,2013-03-06 03:17:00,
2013-03-05 21:22:00,46.8,39.2,30.11,WNW,287,4.0,9.0,75,0.00,,,0.00,meteohub,2013-03-06 03:22:00,
2013-03-05 21:27:00,46.6,39.0,30.11,WSW,257,5.0,9.0,75,0.00,,,0.00,meteohub,2013-03-06 03:27:00,
2013-03-05 21:32:00,46.4,38.8,30.11,NW,310,3.0,8.0,75,0.00,,,0.00,meteohub,2013-03-06 03:32:00,
2013-03-05 21:37:00,46.2,38.7,30.11,NW,319,4.0,8.0,75,0.00,,,0.00,meteohub,2013-03-06 03:37:00,
2013-03-05 21:42:00,46.2,39.0,30.11,West,276,5.0,10.0,76,0.00,,,0.00,meteohub,2013-03-06 03:42:00,
2013-03-05 21:47:00,46.0,38.8,30.11,SSW,212,2.0,10.0,76,0.00,,,0.00,meteohub,2013-03-06 03:47:00,
2013-03-05 21:52:00,45.9,38.7,30.12,West,276,1.0,10.0,76,0.00,,,0.00,meteohub,2013-03-06 03:52:00,
2013-03-05 21:57:00,45.9,38.7,30.11,NW,305,2.0,6.0,76,0.00,,,0.00,meteohub,2013-03-06 03:57:00,
2013-03-05 22:02:00,45.7,38.5,30.11,West,278,1.0,10.0,76,0.00,,,0.00,meteohub,2013-03-06 04:02:00,
2013-03-05 22:07:00,45.5,38.3,30.11,WNW,284,2.0,10.0,76,0.00,,,0.00,meteohub,2013-03-06 04:07:00,
2013-03-05 22:12:00,45.3,38.5,30.12,NW,307,3.0,7.0,77,0.00,,,0.00,meteohub,2013-03-06 04:12:00,
2013-03-05 22:17:00,45.1,38.3,30.12,WNW,287,1.0,4.0,77,0.00,,,0.00,meteohub,2013-03-06 04:17:00,
2013-03-05 22:22:00,45.1,38.3,30.11,NW,307,0.0,4.0,77,0.00,,,0.00,meteohub,2013-03-06 04:22:00,
2013-03-05 22:27:00,45.0,38.1,30.12,WNW,291,0.0,6.0,77,0.00,,,0.00,meteohub,2013-03-06 04:27:00,
2013-03-05 22:32:00,44.8,38.3,30.12,WNW,297,0.0,6.0,78,0.00,,,0.00,meteohub,2013-03-06 04:32:00,
2013-03-05 22:37:00,44.8,38.3,30.11,WNW,297,0.0,6.0,78,0.00,,,0.00,meteohub,2013-03-06 04:37:00,
2013-03-05 22:42:00,44.6,38.1,30.11,WNW,283,2.0,7.0,78,0.00,,,0.00,meteohub,2013-03-06 04:42:00,
2013-03-05 22:47:00,44.4,37.9,30.11,WNW,303,3.0,7.0,78,0.00,,,0.00,meteohub,2013-03-06 04:47:00,
2013-03-05 22:52:00,44.2,38.1,30.11,WNW,295,0.0,7.0,79,0.00,,,0.00,meteohub,2013-03-06 04:52:00,
2013-03-05 22:57:00,44.1,37.9,30.11,West,280,3.0,5.0,79,0.00,,,0.00,meteohub,2013-03-06 04:57:00,
2013-03-05 23:00:00,44.1,38.3,30.11,WNW,299,2.0,5.0,80,0.00,,,0.00,meteohub,2013-03-06 05:00:00,
2013-03-05 23:01:00,44.1,38.3,30.11,WNW,299,1.0,5.0,80,0.00,,,0.00,meteohub,2013-03-06 05:01:00,
2013-03-05 23:03:00,43.9,38.1,30.11,WNW,291,3.0,5.0,80,0.00,,,0.00,meteohub,2013-03-06 05:03:00,
2013-03-05 23:08:00,43.9,38.1,30.11,WNW,291,2.0,5.0,80,0.00,,,0.00,meteohub,2013-03-06 05:08:00,
2013-03-05 23:13:00,43.5,37.8,30.10,WNW,300,2.0,5.0,80,0.00,,,0.00,meteohub,2013-03-06 05:13:00,
2013-03-05 23:19:00,43.5,38.1,30.10,WNW,300,0.0,4.0,81,0.00,,,0.00,meteohub,2013-03-06 05:19:00,
2013-03-05 23:24:00,43.3,37.9,30.10,WNW,293,1.0,3.0,81,0.00,,,0.00,meteohub,2013-03-06 05:24:00,
2013-03-05 23:29:00,43.2,37.8,30.10,WNW,293,1.0,3.0,81,0.00,,,0.00,meteohub,2013-03-06 05:29:00,
2013-03-05 23:34:00,43.2,37.8,30.10,WNW,297,1.0,3.0,81,0.00,,,0.00,meteohub,2013-03-06 05:34:00,
2013-03-05 23:39:00,43.0,37.9,30.09,WNW,297,2.0,3.0,82,0.00,,,0.00,meteohub,2013-03-06 05:39:00,
2013-03-05 23:44:00,42.8,37.8,30.10,WNW,297,2.0,3.0,82,0.00,,,0.00,meteohub,2013-03-06 05:44:00,
2013-03-05 23:49:00,42.6,37.6,30.10,WNW,297,0.0,3.0,82,0.00,,,0.00,meteohub,2013-03-06 05:49:00,
2013-03-05 23:54:00,42.4,37.6,30.10,WNW,297,2.0,3.0,83,0.00,,,0.00,meteohub,2013-03-06 05:54:00,
2013-03-05 23:59:00,42.3,37.4,30.10,WNW,296,2.0,3.0,83,0.00,,,0.00,meteohub,2013-03-06 05:59:00,